sat.trackr.live / text

‹ back to catalog

STARLINK-4711

NORAD 53701 · 2022-107B

PAYLOAD ACTIVE UNKNOWN

§ Identity

Operator
Country
US
Launch date
2022-09-05
Launch site
AFETR
Launch vehicle
Mass (kg)
RCS (m²)

Purposes: comms

External: N2YO · Heavens-Above · Gunter

§ Orbital elements

Epoch: 2026-09-20T05:40:57.279648Z

Period
93.79 min
Inclination
53.1638°
Eccentricity
0.0001348
Mean motion
15.35398697 rev/d
Perigee alt
458.8 km
Apogee alt
460.7 km
Semi-major
6,837.9 km
B*
2.1386e-5
RAAN
86.6191°
Arg perigee
90.2575°
Mean anomaly
269.8583°
Rev number
22,427

§ Raw data

STARLINK-47111 53701U 22107B   26263.23677407  .00000365  00000+0  21386-4 0  99902 53701  53.1638  86.6191 0001348  90.2575 269.8583 15.35398697224273

JSON: /api/v1/satellites/53701 · /tle

For live sub-satellite position, see the globe view (requires WebGL).

§ Visibility from observer

Set your observer location to see the next 7 days of passes ≥ 10°. The values pass through the URL so the page stays shareable.

No JS? Fill the form by hand. The geolocation button needs JavaScript.